User: anonymous   Login
Location: Unspecified
(0.0000°N, 0.0000°E)
Time: 06:10:46
(UTC+00:00)
Language:

APRIZESAT 10 - Orbit

View from above orbital plane
View from above orbital plane
View from above satellite
View from above satellite

Ground track
Ground track

The orbit data is extracted from the following two-line orbital elements,

1 40019U 14033K   17296.58048993 +.00000096 +00000-0 +25010-4 0  9993
2 40019 097.8154 162.6927 0082986 275.4846 083.6897 14.66900943178865
Epoch (UTC): 23 October 2017 13:55:54
Eccentricity: 0.0082986
inclination: 97.8154°
perigee height: 612 km
apogee height: 729 km
right ascension of ascending node: 162.6927°
argument of perigee: 275.4846°
revolutions per day: 14.66900943
mean anomaly at epoch: 83.6897°
orbit number at epoch: 17886

The dashed part of the orbit path shows where the satellite is in the earth's shadow,  

DLR